[[{"header":{"parameterUnit":"m.s-1","parameterCategory":1,"la1":30.2991,"la2":30.254,"lo1":-89.0895,"lo2":-89.0444,"dy":0.0017,"dx":0.0017,"nx":28,"ny":28,"refTime":"2025-02-10T09:00:00:Z","depth":0,"parameterNumber":2,"parameterNumberName":"U-component_of_WINDS"},"data":[0,0,0,0,0,0,0,0,0,0,0,0,0,0,0,0,0,0,0,0,0,0,0,0,0,0,0,0,0,0,0,0,0,0,0,0,0,0,0,0,0,0,0,0,0,0,0,0,0,0,0,0,0,0,0,0,0,0,-2.2567,-2.2568,0,-2.2683,-2.2684,-2.2686,-2.2699,-2.2698,-2.2697,-2.2696,-2.2817,-2.2821,-2.2826,0,0,0,0,0,0,0,0,0,0,0,0,0,-2.2356,-2.236,-2.2566,-2.2568,-2.2569,-2.2683,-2.2685,-2.2686,-2.27,-2.2698,-2.2697,-2.2695,-2.2816,-2.2821,-2.2826,0,0,0,0,0,0,0,0,0,0,0,0,0,-2.2458,-2.2361,-2.2566,-2.259,-2.2593,-2.2683,-2.2685,-2.2687,-2.27,-2.2698,-2.2696,-2.2695,-2.2814,-2.282,-2.2827,-2.2901,0,0,-2.2846,-2.2849,0,0,0,0,0,0,0,0,-2.2452,-2.2465,-2.2585,-2.2588,-2.2592,-2.2675,-2.2655,-2.2759,-2.27,-2.2659,-2.2696,-2.2694,-2.2771,-2.2781,-2.2807,-2.2907,-2.2912,-2.2847,-2.2851,-2.2854,-2.2856,0,0,0,0,0,0,0,-2.2445,-2.2461,-2.2613,-2.2586,-2.2591,-2.2595,-2.2607,-2.2675,-2.2724,-2.2663,-2.2664,-2.2678,-2.2773,-2.2801,-2.281,-2.2914,-2.2847,-2.2853,-2.2857,-2.2859,-2.308,-2.3082,0,0,0,0,0,0,-2.2433,-2.2455,-2.2609,-2.2616,-2.2516,-2.26,-2.2614,-2.265,-2.2723,-2.2732,-2.2679,-2.2678,-2.2791,-2.2802,-2.2814,-2.2905,-2.2854,-2.286,-2.2863,-2.3078,-2.308,-2.3083,0,0,0,0,0,0,-2.2429,-2.2447,-2.2604,-2.2536,-2.2556,-2.2605,-2.2646,-2.2653,-2.2681,-2.2735,-2.2744,-2.2698,-2.279,-2.2805,-2.2879,-2.291,-2.2863,-2.2869,-2.3076,-2.3079,-2.3082,-2.3088,0,0,0,0,0,0,-2.2423,-2.2445,-2.2474,-2.2536,-2.256,-2.2667,-2.2648,-2.2657,-2.2692,-2.2691,-2.2756,-2.2765,-2.2789,-2.2869,-2.2886,-2.2918,-2.2874,-2.3073,-2.3077,-2.3081,-2.3086,-2.3091,-2.3096,0,0,0,0,0,-2.2415,-2.2472,-2.2475,-2.2494,-2.2596,-2.2669,-2.2682,-2.2709,-2.2694,-2.2723,-2.2758,-2.2763,-2.2904,-2.2877,-2.2895,-2.293,-2.3071,-2.3076,-2.308,-2.3083,-2.309,-2.3096,0,0,0,0,0,0,-2.2412,-2.248,-2.2485,-2.2563,-2.261,-2.2671,-2.2708,-2.2716,-2.2768,-2.2765,-2.2797,-2.2812,-2.2884,-2.2915,-2.2883,-2.3005,-2.2986,-2.2995,-2.2982,-2.2989,-2.2994,-2.2985,-2.2879,0,0,0,0,0,-2.2421,-2.2473,-2.253,-2.2594,-2.2617,-2.2659,-2.2691,-2.2708,-2.2758,-2.2778,-2.2818,-2.2866,-2.2922,-2.2957,-2.3011,-2.3091,-2.3104,-2.3123,-2.3128,-2.3132,-2.3139,-2.3182,-2.319,-2.3097,-2.3097,-2.3097,0,0,-2.2439,-2.2483,-2.2514,-2.2595,-2.2633,-2.2686,-2.2675,-2.2733,-2.2773,-2.2787,-2.2858,-2.289,-2.2946,-2.3022,-2.3058,-2.305,-2.3168,-2.3138,-2.3141,-2.3145,-2.3187,-2.3196,-2.3204,-2.31,-2.31,-2.3099,0,0,-2.2499,-2.2538,-2.2594,-2.2632,-2.269,-2.2717,-2.2731,-2.2791,-2.2811,-2.2884,-2.2895,-2.2943,-2.3038,-2.3077,-2.311,-2.3184,-2.319,-2.3201,-2.3228,-2.3269,-2.3276,-2.3283,-2.3308,-2.3317,-2.3208,-2.3208,-2.3208,0,-2.2514,-2.2595,-2.2623,-2.268,-2.2714,-2.2729,-2.2786,-2.2822,-2.2894,-2.2918,-2.2908,-2.3027,-2.3066,-2.3151,-2.3169,-2.3195,-2.3211,-2.3193,-2.3273,-2.328,-2.3286,-2.3311,-2.332,-2.3209,-2.3208,-2.3208,-2.3208,0,-2.261,-2.2666,-2.2705,-2.2773,-2.2813,-2.287,-2.2906,-2.2943,-2.2956,-2.2984,-2.3058,-2.3105,-2.3168,-2.319,-2.3204,-2.3277,-2.327,-2.3266,-2.3248,-2.3296,-2.3319,-2.3329,-2.321,-2.3209,-2.3209,-2.3209,0,0,-2.2671,-2.2754,-2.2767,-2.2798,-2.2862,-2.2906,-2.2964,-2.3025,-2.3055,-2.3105,-2.3153,-2.3233,-2.3229,-2.3266,-2.3285,-2.3321,-2.3375,-2.3313,-2.3315,-2.3322,-2.3457,-2.3458,-2.3468,-2.338,-2.3382,-2.3383,-2.3452,0,-2.2737,-2.2839,-2.2865,-2.2952,-2.3003,-2.3018,-2.3068,-2.3113,-2.3141,-2.3189,-2.322,-2.3275,-2.3268,-2.3289,-2.3326,-2.3361,-2.3403,-2.3357,-2.3425,-2.3427,-2.3408,-2.3481,-2.3483,-2.3545,-2.3461,-2.3463,-2.3464,0,-2.2828,-2.2878,-2.2969,-2.3026,-2.3048,-2.3093,-2.315,-2.3196,-2.3247,-2.3265,-2.3306,-2.3321,-2.3381,-2.336,-2.3444,-2.3412,-2.3441,-2.3463,-2.3466,-2.3472,-2.3447,-2.3487,-2.3565,-2.3574,-2.3479,-2.3478,-2.3477,0,-2.286,-2.2951,-2.3017,-2.3044,-2.3112,-2.3142,-2.3172,-2.3222,-2.3256,-2.3307,-2.333,-2.3387,-2.3418,-2.3463,-2.3493,-2.3475,-2.3573,-2.3555,-2.3589,-2.3588,-2.3608,-2.3606,-2.369,-2.3629,-2.3629,-2.3629,-2.3629,0,-2.293,-2.2985,-2.3033,-2.3073,-2.3135,-2.3165,-2.3226,-2.3257,-2.33,-2.3347,-2.3364,-2.3407,-2.3445,-2.3494,-2.3518,-2.3583,-2.3597,-2.3613,-2.3618,-2.3611,-2.3608,-2.3629,-2.3625,-2.3632,-2.3631,-2.3631,-2.363,0,-2.2977,-2.3011,-2.3084,-2.3142,-2.3158,-2.3201,-2.3251,-2.3291,-2.332,-2.3378,-2.3394,-2.3439,-2.3497,-2.3532,-2.3606,-2.3622,-2.3693,-2.3698,-2.3675,-2.3677,-2.3708,-2.3704,-2.3808,-2.3822,-2.3753,-2.3754,-2.3755,0,-2.3019,-2.3061,-2.3124,-2.3156,-2.3186,-2.3238,-2.3273,-2.3304,-2.334,-2.3401,-2.3434,-2.3493,-2.3541,-2.3633,-2.3673,-2.3729,-2.3734,-2.3767,-2.3743,-2.3733,-2.3733,-2.3729,-2.3733,-2.377,-2.3771,-2.3771,-2.3772,0,-2.3088,-2.3103,-2.3152,-2.3208,-2.3249,-2.3295,-2.334,-2.3366,-2.3405,-2.3445,-2.3504,-2.3541,-2.3616,-2.3674,-2.3734,-2.3765,-2.3775,-2.3779,-2.3789,-2.3781,-2.3765,-2.3773,-2.3684,-2.3776,-2.3776,-2.3775,-2.3775,-2.3775,-2.3133,-2.317,-2.322,-2.3275,-2.3312,-2.3354,-2.3393,-2.3427,-2.3476,-2.3539,-2.3555,-2.3617,-2.3666,-2.3747,-2.378,-2.3829,-2.3824,-2.3839,-2.3843,-2.3846,-2.3846,-2.3759,-2.384,-2.384,-2.384,-2.384,-2.384,0,-2.3201,-2.3234,-2.3284,-2.3346,-2.3389,-2.3394,-2.3445,-2.348,-2.3534,-2.3579,-2.3627,-2.3694,-2.375,-2.3794,-2.3852,-2.3882,-2.3888,-2.3896,-2.3894,-2.39,-2.3848,-2.3832,-2.389,-2.389,-2.389,-2.389,-2.389,-2.389,-2.3242,-2.3306,-2.3326,-2.3409,-2.3441,-2.3501,-2.3529,-2.3567,-2.3604,-2.3678,-2.3724,-2.3752,-2.3797,-2.3858,-2.391,-2.3921,-2.3941,-2.3948,-2.396,-2.391,-2.3904,-2.3899,-2.3884,-2.3953,-2.3953,-2.4008,-2.4009,-2.4009]},{"header":{"parameterUnit":"m.s-1","parameterCategory":1,"la1":30.2991,"la2":30.254,"lo1":-89.0895,"lo2":-89.0444,"dy":0.0017,"dx":0.0017,"nx":28,"ny":28,"refTime":"2025-02-10T09:00:00:Z","depth":0,"parameterNumber":3,"parameterNumberName":"V-component_of_WINDS"},"data":[0,0,0,0,0,0,0,0,0,0,0,0,0,0,0,0,0,0,0,0,0,0,0,0,0,0,0,0,0,0,0,0,0,0,0,0,0,0,0,0,0,0,0,0,0,0,0,0,0,0,0,0,0,0,0,0,0,0,0.6969,0.6972,0,0.7227,0.723,0.7233,0.7291,0.729,0.7288,0.7286,0.7564,0.7573,0.7582,0,0,0,0,0,0,0,0,0,0,0,0,0,0.6543,0.655,0.6969,0.6972,0.6975,0.7226,0.723,0.7233,0.7292,0.7289,0.7287,0.7285,0.7561,0.7572,0.7583,0,0,0,0,0,0,0,0,0,0,0,0,0,0.6757,0.6553,0.6968,0.7034,0.7042,0.7226,0.723,0.7234,0.7292,0.7289,0.7287,0.7284,0.7558,0.7571,0.7584,0.7724,0,0,0.7626,0.7632,0,0,0,0,0,0,0,0,0.6745,0.6773,0.7021,0.703,0.704,0.7224,0.7182,0.7399,0.7293,0.7198,0.7286,0.7283,0.7454,0.7476,0.7531,0.7737,0.7749,0.7627,0.7636,0.7642,0.7645,0,0,0,0,0,0,0,0.673,0.6762,0.7071,0.7025,0.7036,0.7056,0.7084,0.7223,0.7339,0.7206,0.7211,0.724,0.7459,0.7518,0.7538,0.7753,0.7627,0.7639,0.7648,0.7653,0.8094,0.8097,0,0,0,0,0,0,0.6701,0.6749,0.7063,0.7079,0.6882,0.7066,0.7097,0.7168,0.7337,0.736,0.7242,0.7242,0.7496,0.7522,0.7548,0.7727,0.7641,0.7654,0.7662,0.8091,0.8095,0.8099,0,0,0,0,0,0,0.6692,0.6729,0.7053,0.6916,0.6958,0.7076,0.7156,0.7174,0.7233,0.7364,0.7387,0.728,0.7494,0.7529,0.768,0.7737,0.766,0.7673,0.8087,0.8092,0.8097,0.8083,0,0,0,0,0,0,0.668,0.6725,0.6775,0.6916,0.6965,0.7175,0.7159,0.7181,0.7255,0.7257,0.7406,0.7428,0.7495,0.766,0.7694,0.7755,0.7684,0.8082,0.8089,0.8095,0.8079,0.8087,0.8094,0,0,0,0,0,0.6664,0.6763,0.6777,0.6815,0.7029,0.7178,0.7207,0.7278,0.7259,0.7314,0.7399,0.7423,0.7725,0.7675,0.7714,0.778,0.8079,0.8087,0.8095,0.8076,0.8086,0.8094,0,0,0,0,0,0,0.663,0.6782,0.68,0.6946,0.7048,0.7188,0.7258,0.7286,0.7399,0.7397,0.7485,0.7518,0.7665,0.7738,0.7679,0.7927,0.7902,0.7918,0.7874,0.7885,0.7892,0.7873,0.7695,0,0,0,0,0,0.6638,0.6741,0.6871,0.6988,0.7038,0.7139,0.7207,0.7253,0.7364,0.7409,0.7505,0.7616,0.7737,0.7815,0.7932,0.8089,0.8126,0.8155,0.8162,0.8168,0.8182,0.8276,0.8292,0.8125,0.8125,0.8124,0,0,0.6659,0.6755,0.6815,0.6984,0.7068,0.7179,0.7175,0.7291,0.7376,0.7428,0.7577,0.7652,0.7783,0.7938,0.8012,0.8004,0.8236,0.8178,0.8181,0.8193,0.8286,0.8302,0.8316,0.813,0.8129,0.8128,0,0,0.6753,0.6833,0.6941,0.7026,0.7153,0.722,0.7246,0.7383,0.7433,0.7583,0.7625,0.7731,0.7934,0.8027,0.8101,0.8234,0.8264,0.8271,0.8311,0.8402,0.8416,0.8428,0.848,0.8497,0.8283,0.8283,0.8283,0,0.6763,0.6926,0.6995,0.7109,0.7185,0.7233,0.7347,0.7428,0.7589,0.7643,0.7629,0.7889,0.798,0.8161,0.8194,0.825,0.8288,0.8255,0.8407,0.842,0.8433,0.8484,0.8503,0.8284,0.8284,0.8284,0.8284,0,0.6936,0.7048,0.7122,0.7272,0.7356,0.7469,0.7561,0.7639,0.7678,0.7749,0.7905,0.8016,0.8159,0.8205,0.8246,0.8394,0.8386,0.8388,0.8366,0.8448,0.8498,0.8517,0.8284,0.8284,0.8284,0.8284,0,0,0.7015,0.7202,0.7228,0.7299,0.7444,0.7536,0.7655,0.7791,0.7859,0.7969,0.8075,0.8248,0.8253,0.8337,0.8389,0.8468,0.8573,0.8463,0.8468,0.8483,0.8751,0.8749,0.877,0.8592,0.8596,0.86,0.8741,0,0.7129,0.7337,0.7404,0.7581,0.7689,0.7739,0.7844,0.7947,0.8017,0.8125,0.8205,0.8327,0.8321,0.8373,0.8454,0.8543,0.8629,0.8534,0.8699,0.8703,0.8666,0.8796,0.8794,0.8922,0.876,0.8764,0.8766,0,0.729,0.74,0.7585,0.7721,0.7769,0.7861,0.7994,0.8093,0.8215,0.8261,0.8356,0.8403,0.8536,0.8503,0.8692,0.8626,0.8698,0.8752,0.8759,0.878,0.8741,0.8824,0.8964,0.8984,0.8796,0.8794,0.8792,0,0.7334,0.7529,0.7666,0.7725,0.7885,0.7949,0.802,0.8138,0.8218,0.8336,0.8389,0.8523,0.8597,0.8702,0.8786,0.8754,0.897,0.8943,0.9017,0.9015,0.9062,0.9059,0.9219,0.9102,0.9102,0.9101,0.9101,0,0.7457,0.757,0.7688,0.7773,0.7904,0.7982,0.8111,0.8186,0.8291,0.8397,0.8448,0.8547,0.865,0.8765,0.8832,0.8982,0.9014,0.906,0.9077,0.9057,0.9052,0.9107,0.9102,0.9107,0.9105,0.9104,0.9104,0,0.7528,0.7611,0.7765,0.7904,0.7942,0.8032,0.8154,0.8243,0.8315,0.8448,0.8484,0.86,0.8738,0.8831,0.9008,0.9054,0.9218,0.9231,0.9175,0.9184,0.9255,0.9248,0.946,0.9495,0.935,0.9351,0.9352,0,0.7602,0.769,0.7838,0.791,0.798,0.8095,0.8176,0.8259,0.8342,0.8489,0.8561,0.8701,0.8818,0.9037,0.9141,0.9279,0.9299,0.9364,0.9321,0.9299,0.9306,0.9301,0.9313,0.9372,0.9373,0.9374,0.9374,0,0.7727,0.7764,0.7875,0.8003,0.8097,0.8202,0.8309,0.8366,0.8469,0.8561,0.87,0.8791,0.8972,0.9113,0.9261,0.9341,0.9378,0.9387,0.9412,0.9394,0.936,0.9384,0.9198,0.9382,0.9381,0.9381,0.938,0.938,0.7805,0.7887,0.8004,0.8129,0.8217,0.8316,0.8406,0.849,0.8605,0.8756,0.88,0.8946,0.9072,0.9274,0.9356,0.9477,0.9472,0.9507,0.9517,0.9526,0.9528,0.9337,0.9504,0.9504,0.9504,0.9504,0.9504,0,0.7936,0.8014,0.8127,0.8273,0.8373,0.8393,0.8513,0.8597,0.8723,0.8835,0.8948,0.9112,0.925,0.9365,0.951,0.9585,0.9606,0.962,0.9618,0.9637,0.9522,0.9487,0.9601,0.9601,0.9601,0.9601,0.9601,0.9601,0.8016,0.8157,0.8209,0.8397,0.8477,0.8617,0.8685,0.8779,0.8869,0.9047,0.916,0.9233,0.9349,0.9503,0.9633,0.9664,0.9717,0.9729,0.9764,0.9655,0.9644,0.9634,0.9602,0.9738,0.9738,0.987,0.9871,0.9872]}]]